Location: S�deilles
(46.7500°N, 6.9329°E)
Time: 17:26:15
(UTC+00:00)

Cosmos 2333 Rocket - Pass Details

Date: 08 March 2021
Orbit: 837 x 864 km, 70.8° (Epoch: 19 April)

Event Time Altitude Azimuth Distance (km) Brightness Sun altitude
Rises 19:29:27 0° 229° (SW) 3,396 5.8 -21.4°
Reaches altitude 10° 19:32:02 10° 237° (WSW) 2,469 5.1 -21.8°
Maximum altitude 19:37:21 40° 306° (NW) 1,245 3.5 -22.6°
Drops below altitude 10° 19:42:44 10° 16° (NNE) 2,500 4.7 -23.5°
Sets 19:45:22 0° 24° (NNE) 3,444 5.3 -23.9°
